{"data":{"norad_id":53754,"intl_designator":"2022-107BG","name":"SHERPA-LTC2","alt_names":[],"object_type":"PAYLOAD","status":"ACTIVE","operator":null,"country":"US","launch_date":"2022-09-05","launch_site_code":"AFETR","launch_vehicle":null,"mission":null,"orbit_class":"UNKNOWN","rcs_meters":null,"size_class":null,"mass_kg":null,"dimensions":null,"purposes":[],"wikipedia_slug":null,"has_3d_model":false,"image_url":null,"decayed_at":null,"tle_current":{"epoch":"2026-09-20T05:41:55.114944Z","epoch_age_seconds":172403,"freshness":"FRESH","line1":"1 53754U 22107BG  26263.23744346  .00002893  00000+0  15551-3 0  9999","line2":"2 53754  53.2345 177.7274 0393641 132.0972 231.4189 14.70335029216521","mean_motion":14.70335029,"eccentricity":0.0393641,"inclination_deg":53.2345,"raan_deg":177.7274,"arg_perigee_deg":132.0972,"mean_anomaly_deg":231.4189,"bstar":0.00015551,"rev_number":21652,"period_min":97.936862796459,"perigee_km":382.9488636854,"apogee_km":937.04862207814,"semimajor_km":7038.1357428818,"source":"CELESTRAK","updated_at":"2026-09-21T09:00:09.187463Z"}}}